[[{"header":{"parameterUnit":"m.s-1","parameterCategory":2,"la1":30.2991,"la2":30.254,"lo1":-89.0895,"lo2":-89.0444,"dy":0.0017,"dx":0.0017,"nx":28,"ny":28,"refTime":"2023-09-17T21:00:00:Z","depth":"0","parameterNumber":2,"parameterNumberName":"U-component_of_CURRENTS"},"data":[0,0,0,0,0,0,0,0,0,0,0,0,0,0,0,0,0,0,0,0,0,0,0,0,0,0,0,0,0,0,0,0,0,0,0,0,0,0,0,0,0,0,0,0,0,0,0,0,0,0,0,0,0,0,0,0,0,0,-0.2468,-0.2468,0,-0.2495,-0.2495,-0.2495,-0.2456,-0.2454,-0.2453,-0.2452,-0.2419,-0.2419,-0.242,0,0,0,0,0,0,0,0,0,0,0,0,0,-0.23,-0.2304,-0.2468,-0.2468,-0.2469,-0.2495,-0.2495,-0.2495,-0.2456,-0.2454,-0.2453,-0.2451,-0.2419,-0.2419,-0.242,0,0,0,0,0,0,0,0,0,0,0,0,0,-0.2354,-0.2305,-0.2468,-0.2453,-0.2452,-0.2494,-0.2495,-0.2495,-0.2456,-0.2454,-0.2452,-0.245,-0.2419,-0.2419,-0.242,-0.2462,0,0,-0.2421,-0.2421,0,0,0,0,0,0,0,0,-0.2351,-0.236,-0.2455,-0.2454,-0.2453,-0.247,-0.2423,-0.2481,-0.2457,-0.2454,-0.2452,-0.2449,-0.2433,-0.2432,-0.2441,-0.2461,-0.2459,-0.2421,-0.2422,-0.2422,-0.2422,0,0,0,0,0,0,0,-0.2347,-0.2358,-0.2478,-0.2455,-0.2454,-0.2416,-0.2422,-0.2434,-0.2452,-0.2454,-0.2451,-0.2456,-0.2431,-0.2441,-0.244,-0.2459,-0.2421,-0.2422,-0.2422,-0.2422,-0.247,-0.2471,0,0,0,0,0,0,-0.2353,-0.2356,-0.2477,-0.2479,-0.2397,-0.2421,-0.2428,-0.2466,-0.2453,-0.245,-0.2458,-0.2454,-0.2441,-0.2439,-0.2438,-0.2455,-0.2422,-0.2422,-0.2423,-0.2469,-0.2471,-0.2472,0,0,0,0,0,0,-0.235,-0.2365,-0.2476,-0.2415,-0.2427,-0.2427,-0.2469,-0.2468,-0.2463,-0.2457,-0.2452,-0.2453,-0.2439,-0.2438,-0.2442,-0.2454,-0.2423,-0.2423,-0.2468,-0.247,-0.2471,-0.2509,0,0,0,0,0,0,-0.2346,-0.2365,-0.2386,-0.2418,-0.2431,-0.249,-0.2471,-0.247,-0.2471,-0.2466,-0.2452,-0.2448,-0.2437,-0.2441,-0.2442,-0.2454,-0.2423,-0.2467,-0.2469,-0.2471,-0.2507,-0.2512,-0.2516,0,0,0,0,0,-0.234,-0.2367,-0.2388,-0.2402,-0.2465,-0.2491,-0.2494,-0.2485,-0.2472,-0.2473,-0.2467,-0.2447,-0.2453,-0.2443,-0.2444,-0.2456,-0.2466,-0.2468,-0.2471,-0.2505,-0.2511,-0.2516,0,0,0,0,0,0,-0.2282,-0.2367,-0.239,-0.2437,-0.2462,-0.2484,-0.248,-0.2486,-0.2485,-0.2475,-0.2464,-0.2461,-0.2468,-0.2462,-0.2451,-0.2476,-0.2455,-0.2458,-0.2481,-0.2487,-0.2491,-0.2482,-0.2424,0,0,0,0,0,-0.2292,-0.2341,-0.2401,-0.2429,-0.2449,-0.247,-0.2476,-0.248,-0.2487,-0.2484,-0.2483,-0.248,-0.2484,-0.2482,-0.2485,-0.2505,-0.2466,-0.2513,-0.2517,-0.2521,-0.2515,-0.2491,-0.2492,-0.2479,-0.2479,-0.2479,0,0,-0.2267,-0.2324,-0.2345,-0.2421,-0.2439,-0.2476,-0.2467,-0.248,-0.2501,-0.2483,-0.25,-0.2497,-0.2493,-0.2509,-0.2512,-0.2502,-0.2499,-0.2524,-0.2527,-0.2519,-0.2493,-0.2494,-0.2495,-0.248,-0.248,-0.248,0,0,-0.225,-0.2306,-0.2348,-0.2388,-0.2437,-0.2459,-0.2466,-0.2503,-0.2505,-0.2535,-0.2522,-0.2526,-0.2542,-0.254,-0.2541,-0.2576,-0.2524,-0.2578,-0.2594,-0.2572,-0.2572,-0.2572,-0.2494,-0.2487,-0.2581,-0.2581,-0.2581,0,-0.2216,-0.2296,-0.235,-0.2406,-0.2431,-0.2456,-0.249,-0.2511,-0.254,-0.2545,-0.2539,-0.256,-0.2557,-0.257,-0.2581,-0.2585,-0.2543,-0.2573,-0.2576,-0.2576,-0.2575,-0.2495,-0.2486,-0.2583,-0.2582,-0.2582,-0.2582,0,-0.2238,-0.2306,-0.2323,-0.242,-0.2451,-0.2476,-0.2529,-0.255,-0.2562,-0.258,-0.2594,-0.2599,-0.2601,-0.2612,-0.2608,-0.261,-0.2569,-0.2583,-0.2558,-0.2578,-0.2493,-0.2483,-0.2586,-0.2585,-0.2584,-0.2584,0,0,-0.2154,-0.2313,-0.2318,-0.2363,-0.2463,-0.2475,-0.2532,-0.2574,-0.2575,-0.2617,-0.2606,-0.2649,-0.2638,-0.2638,-0.2636,-0.2626,-0.2581,-0.2604,-0.2602,-0.2518,-0.2482,-0.241,-0.2391,-0.2596,-0.2595,-0.2595,-0.2412,0,-0.2149,-0.2237,-0.2332,-0.239,-0.2431,-0.2502,-0.2541,-0.2581,-0.26,-0.2595,-0.2615,-0.2598,-0.2653,-0.2625,-0.2642,-0.2584,-0.2563,-0.2626,-0.2482,-0.2477,-0.2405,-0.2382,-0.23,-0.2128,-0.2403,-0.2401,-0.24,0,-0.2139,-0.2205,-0.2265,-0.2376,-0.2397,-0.2432,-0.247,-0.2514,-0.2543,-0.2554,-0.2576,-0.2567,-0.2562,-0.2588,-0.2545,-0.258,-0.2538,-0.2504,-0.2496,-0.2409,-0.2388,-0.2159,-0.2099,-0.2087,-0.2384,-0.2386,-0.2387,0,-0.2018,-0.2153,-0.2185,-0.2226,-0.2353,-0.2375,-0.2424,-0.2478,-0.2487,-0.2495,-0.2469,-0.2499,-0.245,-0.2455,-0.2424,-0.2466,-0.2338,-0.2382,-0.2277,-0.2268,-0.2159,-0.2143,-0.2065,-0.2342,-0.2342,-0.2343,-0.2343,0,-0.1977,-0.2008,-0.2122,-0.2142,-0.2152,-0.2275,-0.2273,-0.2332,-0.2368,-0.2344,-0.2416,-0.2374,-0.2415,-0.2363,-0.2369,-0.2276,-0.2298,-0.2254,-0.2221,-0.2167,-0.2155,-0.211,-0.2139,-0.2336,-0.2337,-0.2339,-0.234,0,-0.186,-0.1944,-0.1982,-0.2085,-0.2101,-0.2097,-0.2176,-0.2177,-0.2233,-0.2192,-0.2178,-0.2225,-0.2174,-0.2194,-0.2141,-0.2155,-0.2048,-0.2061,-0.1967,-0.1929,-0.1843,-0.1877,-0.1729,-0.168,-0.1903,-0.19,-0.1898,0,-0.1822,-0.1824,-0.1886,-0.1889,-0.1937,-0.1956,-0.1971,-0.2071,-0.2074,-0.2095,-0.2051,-0.2008,-0.1982,-0.1893,-0.1892,-0.1846,-0.1893,-0.1735,-0.1828,-0.1801,-0.1815,-0.1842,-0.1816,-0.1675,-0.1671,-0.1667,-0.1665,0,-0.1739,-0.1741,-0.1768,-0.1755,-0.1763,-0.1777,-0.1808,-0.1792,-0.1886,-0.187,-0.1845,-0.1824,-0.1758,-0.1696,-0.1647,-0.1629,-0.1688,-0.1666,-0.167,-0.165,-0.1639,-0.1587,-0.1803,-0.1636,-0.1639,-0.1641,-0.1642,-0.1643,-0.1654,-0.1629,-0.164,-0.1624,-0.163,-0.1614,-0.1583,-0.1623,-0.1612,-0.1591,-0.1638,-0.16,-0.1565,-0.1506,-0.1465,-0.1381,-0.1463,-0.138,-0.142,-0.1446,-0.1422,-0.155,-0.1345,-0.1347,-0.1348,-0.1348,-0.1349,0,-0.1558,-0.154,-0.152,-0.1501,-0.1464,-0.15,-0.1484,-0.1446,-0.14,-0.1418,-0.1399,-0.1393,-0.1315,-0.13,-0.1233,-0.1174,-0.1167,-0.1153,-0.1192,-0.1176,-0.1295,-0.1313,-0.1053,-0.1053,-0.1053,-0.1053,-0.1053,-0.1053,-0.151,-0.1455,-0.1441,-0.1348,-0.1328,-0.1239,-0.1207,-0.1163,-0.1159,-0.1128,-0.1147,-0.1208,-0.1208,-0.1245,-0.1144,-0.1077,-0.107,-0.1014,-0.1052,-0.1178,-0.1204,-0.1229,-0.1253,-0.0985,-0.0985,-0.0886,-0.0886,-0.0885]},{"header":{"parameterUnit":"m.s-1","parameterCategory":2,"la1":30.2991,"la2":30.254,"lo1":-89.0895,"lo2":-89.0444,"dy":0.0017,"dx":0.0017,"nx":28,"ny":28,"refTime":"2023-09-17T21:00:00:Z","depth":"0","parameterNumber":3,"parameterNumberName":"V-component_of_CURRENTS"},"data":[0,0,0,0,0,0,0,0,0,0,0,0,0,0,0,0,0,0,0,0,0,0,0,0,0,0,0,0,0,0,0,0,0,0,0,0,0,0,0,0,0,0,0,0,0,0,0,0,0,0,0,0,0,0,0,0,0,0,-0.0299,-0.0298,0,-0.0209,-0.0208,-0.0207,-0.0162,-0.0161,-0.0161,-0.0161,-0.0031,-0.0028,-0.0024,0,0,0,0,0,0,0,0,0,0,0,0,0,-0.034,-0.034,-0.0299,-0.0297,-0.0296,-0.0209,-0.0208,-0.0207,-0.0162,-0.0161,-0.0161,-0.0161,-0.0032,-0.0028,-0.0024,0,0,0,0,0,0,0,0,0,0,0,0,0,-0.0295,-0.034,-0.0299,-0.0263,-0.0258,-0.0209,-0.0208,-0.0206,-0.0162,-0.0161,-0.0161,-0.0161,-0.0033,-0.0028,-0.0023,0.0004,0,0,-0.0008,-0.0006,0,0,0,0,0,0,0,0,-0.0297,-0.0293,-0.0269,-0.0265,-0.026,-0.0195,-0.0175,-0.0134,-0.0162,-0.0199,-0.0161,-0.0161,-0.0082,-0.0073,-0.0058,0.0011,0.0016,-0.0008,-0.0004,-0.0002,-0.0001,0,0,0,0,0,0,0,-0.0301,-0.0296,-0.0264,-0.0268,-0.0262,-0.0219,-0.0214,-0.0166,-0.0142,-0.0196,-0.0192,-0.0181,-0.0079,-0.0063,-0.0054,0.0018,-0.0008,-0.0003,-0.0,0.0002,0.0118,0.0118,0,0,0,0,0,0,-0.0315,-0.03,-0.0267,-0.0261,-0.0278,-0.0219,-0.0213,-0.0217,-0.0144,-0.0132,-0.0181,-0.0179,-0.0072,-0.006,-0.005,-0.0013,-0.0002,0.0002,0.0005,0.0118,0.0118,0.0118,0,0,0,0,0,0,-0.0317,-0.0314,-0.027,-0.0277,-0.0268,-0.0219,-0.0224,-0.0215,-0.0202,-0.0133,-0.0121,-0.0177,-0.0071,-0.0057,-0.0008,-0.0008,0.0005,0.0009,0.0118,0.0118,0.0118,0.0061,0,0,0,0,0,0,-0.0318,-0.0315,-0.0326,-0.0278,-0.0268,-0.0251,-0.0224,-0.0214,-0.0195,-0.0192,-0.0125,-0.0113,-0.007,-0.0016,-0.0003,-0.0001,0.0013,0.0118,0.0118,0.0118,0.0063,0.0059,0.0056,0,0,0,0,0,-0.032,-0.0336,-0.0327,-0.0323,-0.0285,-0.0251,-0.0242,-0.0206,-0.0195,-0.0194,-0.0145,-0.0115,-0.0007,-0.0012,0.0003,0.0007,0.0118,0.0118,0.0118,0.0064,0.006,0.0056,0,0,0,0,0,0,-0.0357,-0.0331,-0.0321,-0.0328,-0.0296,-0.0243,-0.0238,-0.0213,-0.0174,-0.0173,-0.0109,-0.0093,-0.0053,-0.0014,-0.0022,0.004,0.0058,0.0062,0.0012,0.0009,0.0005,-0.0025,0.0017,0,0,0,0,0,-0.0372,-0.038,-0.034,-0.0346,-0.0335,-0.0289,-0.0272,-0.025,-0.0207,-0.019,-0.0139,-0.0087,-0.004,-0.0011,0.0034,0.0073,0.0096,0.0084,0.0081,0.0077,0.0063,0.0122,0.0122,0.0118,0.0118,0.0118,0,0,-0.0385,-0.0374,-0.0376,-0.0355,-0.0329,-0.032,-0.028,-0.0263,-0.0251,-0.0181,-0.0149,-0.0098,-0.0033,0.0007,0.0029,0.0041,0.0084,0.0078,0.0074,0.0062,0.0122,0.0122,0.0123,0.0118,0.0118,0.0118,0,0,-0.0416,-0.0409,-0.0425,-0.0411,-0.0384,-0.0348,-0.0348,-0.0299,-0.0276,-0.0235,-0.0185,-0.0131,-0.006,-0.0009,0.0025,0.0032,0.0061,0.0039,0.0005,0.0062,0.0063,0.0063,0.0061,0.0062,0.0042,0.0042,0.0042,0,-0.0437,-0.0453,-0.0422,-0.0436,-0.0427,-0.0367,-0.0376,-0.0341,-0.028,-0.0258,-0.0235,-0.0119,-0.0065,-0.0004,-0.001,0.0025,0.0035,0.0015,0.0057,0.0058,0.006,0.0058,0.006,0.0039,0.0039,0.0039,0.004,0,-0.0481,-0.0494,-0.0501,-0.05,-0.0482,-0.0481,-0.043,-0.0403,-0.0359,-0.0316,-0.025,-0.0164,-0.0095,-0.0068,-0.0039,0.0001,-0.0007,0.0042,0.0063,0.0057,0.0055,0.0058,0.0035,0.0036,0.0037,0.0037,0,0,-0.0527,-0.0534,-0.0537,-0.0548,-0.0521,-0.0507,-0.0485,-0.0439,-0.0419,-0.0346,-0.0309,-0.0218,-0.0169,-0.0129,-0.007,-0.0023,-0.0008,-0.0003,0.0002,-0.0015,0.0064,0.0083,0.0088,0.0045,0.0046,0.0046,0.0045,0,-0.0572,-0.0617,-0.0597,-0.0618,-0.0632,-0.0579,-0.0563,-0.0516,-0.0451,-0.0398,-0.03,-0.0241,-0.0191,-0.0156,-0.0102,-0.0026,0.0001,-0.0016,0.008,0.0082,0.0094,0.0094,0.0118,0.0122,0.0048,0.0049,0.0049,0,-0.0622,-0.0645,-0.0686,-0.0684,-0.0684,-0.0681,-0.0635,-0.0609,-0.0523,-0.0475,-0.0391,-0.0315,-0.0235,-0.0186,-0.0069,-0.0088,-0.0034,0.0024,0.0027,0.0067,0.0108,0.0125,0.0131,0.0236,0.0055,0.0054,0.0054,0,-0.0675,-0.0698,-0.0733,-0.074,-0.073,-0.0728,-0.0704,-0.0636,-0.0607,-0.0516,-0.0478,-0.037,-0.0305,-0.021,-0.0093,-0.0086,0.0024,0.0065,0.0126,0.0125,0.0177,0.018,0.0293,0.0135,0.0135,0.0135,0.0135,0,-0.0733,-0.0756,-0.0764,-0.0789,-0.0814,-0.0784,-0.0776,-0.0735,-0.067,-0.0632,-0.0521,-0.0462,-0.0307,-0.0214,-0.0121,0.0004,0.001,0.0106,0.0138,0.0154,0.0155,0.0275,0.0318,0.0135,0.0135,0.0135,0.0135,0,-0.0781,-0.0795,-0.0833,-0.0843,-0.0845,-0.0859,-0.0829,-0.0814,-0.0749,-0.0692,-0.0667,-0.0536,-0.0416,-0.0273,-0.012,-0.0026,0.0156,0.0132,0.0106,0.0136,0.0296,0.0333,0.045,0.0507,0.0192,0.0192,0.0193,0,-0.0805,-0.084,-0.0875,-0.0897,-0.0903,-0.0911,-0.0913,-0.0861,-0.0833,-0.0728,-0.0706,-0.0584,-0.0484,-0.0266,-0.0082,0.0076,0.0174,0.019,0.0231,0.03,0.0366,0.0391,0.0433,0.0254,0.0255,0.0256,0.0257,0,-0.0847,-0.0866,-0.0898,-0.095,-0.097,-0.0981,-0.0973,-0.0965,-0.089,-0.0844,-0.0764,-0.0684,-0.0459,-0.0246,-0.0026,0.0078,0.0272,0.0211,0.0319,0.0446,0.0448,0.052,0.0214,0.0264,0.0263,0.0263,0.0262,0.0262,-0.0862,-0.0899,-0.0946,-0.0991,-0.1021,-0.1038,-0.1038,-0.1017,-0.0988,-0.0895,-0.0821,-0.0672,-0.0356,-0.0035,0.0089,0.0363,0.0335,0.045,0.0487,0.0504,0.0578,0.0253,0.0331,0.033,0.033,0.033,0.033,0,-0.087,-0.0923,-0.0976,-0.1032,-0.107,-0.1071,-0.1067,-0.1047,-0.1018,-0.0912,-0.0829,-0.0478,-0.0171,0.0131,0.0513,0.0648,0.0682,0.0704,0.0761,0.0792,0.0542,0.0566,0.0656,0.0656,0.0656,0.0656,0.0656,0.0656,-0.0876,-0.0937,-0.0977,-0.1057,-0.1092,-0.1112,-0.1106,-0.1077,-0.0997,-0.0811,-0.061,-0.0453,-0.0017,0.0571,0.0914,0.0933,0.1048,0.1013,0.1077,0.0921,0.0901,0.0881,0.0917,0.1079,0.108,0.1325,0.1327,0.1329]}],[{"header":{"parameterUnit":"m.s-1","parameterCategory":2,"la1":30.2991,"la2":30.254,"lo1":-89.0895,"lo2":-89.0444,"dy":0.0017,"dx":0.0017,"nx":28,"ny":28,"refTime":"2023-09-17T21:00:00:Z","depth":"2","parameterNumber":2,"parameterNumberName":"U-component_of_CURRENTS"},"data":[0,0,0,0,0,0,0,0,0,0,0,0,0,0,0,0,0,0,0,0,0,0,0,0,0,0,0,0,0,0,0,0,0,0,0,0,0,0,0,0,0,0,0,0,0,0,0,0,0,0,0,0,0,0,0,0,0,0,-0.2172,-0.2173,0,-0.2305,-0.2306,-0.2308,-0.2295,-0.2293,-0.229,-0.2288,-0.2269,-0.2271,-0.2273,0,0,0,0,0,0,0,0,0,0,0,0,0,-0.1994,-0.1997,-0.2172,-0.2173,-0.2175,-0.2304,-0.2307,-0.2309,-0.2296,-0.2293,-0.229,-0.2287,-0.2269,-0.2271,-0.2273,0,0,0,0,0,0,0,0,0,0,0,0,0,-0.2097,-0.1998,-0.2172,-0.2181,-0.2183,-0.2304,-0.2307,-0.2309,-0.2296,-0.2293,-0.2289,-0.2286,-0.2268,-0.227,-0.2273,-0.2362,0,0,-0.2281,-0.2282,0,0,0,0,0,0,0,0,-0.2091,-0.2104,-0.2178,-0.2181,-0.2183,-0.2276,-0.2237,-0.2318,-0.2297,-0.2257,-0.2288,-0.2284,-0.2258,-0.2261,-0.2302,-0.2361,-0.236,-0.2281,-0.2283,-0.2284,-0.2285,0,0,0,0,0,0,0,-0.2084,-0.2098,-0.2228,-0.218,-0.2183,-0.2208,-0.2218,-0.2254,-0.2276,-0.226,-0.2259,-0.2269,-0.2258,-0.2299,-0.23,-0.236,-0.2281,-0.2284,-0.2285,-0.2286,-0.2381,-0.2382,0,0,0,0,0,0,-0.206,-0.2092,-0.2224,-0.2232,-0.2123,-0.2213,-0.2225,-0.2253,-0.2279,-0.228,-0.2272,-0.2268,-0.2297,-0.2297,-0.2299,-0.2316,-0.2284,-0.2286,-0.2288,-0.2381,-0.2382,-0.2383,0,0,0,0,0,0,-0.2056,-0.2072,-0.2219,-0.216,-0.218,-0.2219,-0.2252,-0.2257,-0.2278,-0.2289,-0.2286,-0.2282,-0.2294,-0.2296,-0.2311,-0.2317,-0.2288,-0.229,-0.2379,-0.2381,-0.2382,-0.2405,0,0,0,0,0,0,-0.2051,-0.207,-0.2086,-0.216,-0.2182,-0.2256,-0.2255,-0.2263,-0.2289,-0.2285,-0.2298,-0.2294,-0.2291,-0.2307,-0.2314,-0.232,-0.2292,-0.2378,-0.238,-0.2382,-0.2403,-0.2407,-0.2411,0,0,0,0,0,-0.2045,-0.2065,-0.2087,-0.2102,-0.2203,-0.2256,-0.227,-0.2288,-0.2293,-0.2296,-0.2312,-0.2292,-0.2322,-0.2311,-0.2318,-0.2326,-0.2377,-0.238,-0.2382,-0.2402,-0.2407,-0.2411,0,0,0,0,0,0,-0.1988,-0.2069,-0.2092,-0.2136,-0.2179,-0.2251,-0.2265,-0.2292,-0.232,-0.2311,-0.232,-0.2318,-0.2329,-0.2334,-0.2322,-0.2358,-0.2342,-0.2346,-0.2355,-0.236,-0.2363,-0.2346,-0.2294,0,0,0,0,0,-0.1991,-0.2023,-0.21,-0.2126,-0.2154,-0.2218,-0.2245,-0.2263,-0.2298,-0.2307,-0.2327,-0.2341,-0.2356,-0.2358,-0.2372,-0.241,-0.237,-0.2414,-0.2418,-0.2421,-0.2412,-0.2392,-0.2392,-0.239,-0.239,-0.239,0,0,-0.1971,-0.2021,-0.2037,-0.2116,-0.216,-0.2208,-0.2224,-0.226,-0.2291,-0.2302,-0.2344,-0.2357,-0.2368,-0.2394,-0.2399,-0.2392,-0.2393,-0.2424,-0.2427,-0.2416,-0.2394,-0.2394,-0.2394,-0.2391,-0.2391,-0.2391,0,0,-0.1951,-0.2002,-0.2028,-0.2077,-0.214,-0.2186,-0.2193,-0.2272,-0.229,-0.2345,-0.235,-0.2367,-0.2412,-0.2417,-0.2426,-0.2465,-0.2412,-0.2467,-0.2476,-0.2457,-0.2456,-0.2455,-0.2362,-0.2352,-0.2471,-0.2471,-0.2471,0,-0.1926,-0.1983,-0.2037,-0.2085,-0.2124,-0.2174,-0.2216,-0.2258,-0.2326,-0.2343,-0.2343,-0.241,-0.2422,-0.2444,-0.2457,-0.2472,-0.2426,-0.2457,-0.2459,-0.2458,-0.2456,-0.2361,-0.2351,-0.2472,-0.2472,-0.2472,-0.2472,0,-0.1939,-0.1988,-0.2005,-0.2088,-0.2135,-0.217,-0.2242,-0.2278,-0.2316,-0.2355,-0.2387,-0.242,-0.2446,-0.2462,-0.2476,-0.2481,-0.2436,-0.2463,-0.2442,-0.2458,-0.2356,-0.2345,-0.2474,-0.2474,-0.2473,-0.2473,0,0,-0.1874,-0.1992,-0.1997,-0.2032,-0.2142,-0.2168,-0.2234,-0.2295,-0.2304,-0.2372,-0.2382,-0.2446,-0.2454,-0.2464,-0.2481,-0.248,-0.243,-0.2471,-0.2469,-0.2366,-0.2324,-0.2268,-0.2249,-0.2459,-0.2458,-0.2458,-0.224,0,-0.1867,-0.1932,-0.2011,-0.2063,-0.2104,-0.2187,-0.223,-0.2286,-0.2329,-0.2344,-0.2384,-0.239,-0.2455,-0.2447,-0.2469,-0.2435,-0.2408,-0.2482,-0.2334,-0.2328,-0.2269,-0.2238,-0.2119,-0.1915,-0.2228,-0.2226,-0.2225,0,-0.1859,-0.1904,-0.1959,-0.2042,-0.2066,-0.2103,-0.2164,-0.2212,-0.226,-0.2286,-0.2325,-0.234,-0.235,-0.2394,-0.2357,-0.2399,-0.2362,-0.234,-0.2332,-0.2265,-0.2253,-0.1961,-0.1882,-0.2205,-0.2207,-0.2208,-0.221,0,-0.1765,-0.1864,-0.1894,-0.1931,-0.2037,-0.2062,-0.2108,-0.2179,-0.2199,-0.2225,-0.2216,-0.2254,-0.2229,-0.2234,-0.2235,-0.2274,-0.2161,-0.2202,-0.2106,-0.2097,-0.1959,-0.1942,-0.2157,-0.2157,-0.2157,-0.2158,-0.2159,0,-0.1732,-0.1753,-0.184,-0.1857,-0.1865,-0.1973,-0.1981,-0.2035,-0.2082,-0.2076,-0.2158,-0.214,-0.2193,-0.2161,-0.2171,-0.209,-0.2107,-0.2076,-0.2046,-0.196,-0.1946,-0.219,-0.2197,-0.215,-0.2151,-0.2153,-0.2154,0,-0.1637,-0.1704,-0.1729,-0.181,-0.1825,-0.1824,-0.1897,-0.1901,-0.1959,-0.1947,-0.1942,-0.2005,-0.1967,-0.1999,-0.1959,-0.1969,-0.1918,-0.1887,-0.175,-0.1711,-0.1865,-0.1875,-0.1714,-0.171,-0.1707,-0.1705,-0.1702,0,-0.1602,-0.1603,-0.1655,-0.1658,-0.1694,-0.1712,-0.1727,-0.1814,-0.1825,-0.1865,-0.1837,-0.1816,-0.1805,-0.1725,-0.1725,-0.1668,-0.1785,-0.1521,-0.1606,-0.1836,-0.1823,-0.1839,-0.1853,-0.1393,-0.1388,-0.1384,-0.1382,0,-0.1523,-0.1532,-0.155,-0.1543,-0.1552,-0.1564,-0.1591,-0.1584,-0.1672,-0.167,-0.1663,-0.1652,-0.1596,-0.1511,-0.146,-0.1434,-0.1531,-0.1443,-0.1693,-0.1559,-0.1526,-0.1517,-0.1542,-0.1349,-0.1352,-0.1354,-0.1356,-0.1357,-0.1449,-0.1426,-0.1437,-0.1425,-0.1434,-0.1423,-0.1397,-0.1435,-0.1433,-0.1428,-0.1477,-0.1431,-0.1412,-0.1292,-0.1218,-0.1175,-0.1299,-0.1264,-0.1277,-0.1294,-0.1332,-0.1301,-0.1081,-0.1082,-0.1084,-0.1085,-0.1086,0,-0.1357,-0.1342,-0.1325,-0.131,-0.1279,-0.1316,-0.131,-0.1279,-0.1247,-0.1262,-0.1249,-0.1129,-0.106,-0.1055,-0.0942,-0.0916,-0.0931,-0.0874,-0.0908,-0.094,-0.0969,-0.0994,-0.065,-0.0649,-0.0648,-0.0646,0,0,-0.131,-0.1259,-0.1246,-0.1164,-0.1152,-0.1078,-0.1055,-0.1027,-0.1021,-0.0982,-0.0962,-0.1023,-0.1041,-0.0856,-0.0801,-0.0712,-0.0821,-0.0671,-0.1023,-0.1096,-0.1123,-0.1194,-0.1269,0,0,0,0,0]},{"header":{"parameterUnit":"m.s-1","parameterCategory":2,"la1":30.2991,"la2":30.254,"lo1":-89.0895,"lo2":-89.0444,"dy":0.0017,"dx":0.0017,"nx":28,"ny":28,"refTime":"2023-09-17T21:00:00:Z","depth":"2","parameterNumber":3,"parameterNumberName":"V-component_of_CURRENTS"},"data":[0,0,0,0,0,0,0,0,0,0,0,0,0,0,0,0,0,0,0,0,0,0,0,0,0,0,0,0,0,0,0,0,0,0,0,0,0,0,0,0,0,0,0,0,0,0,0,0,0,0,0,0,0,0,0,0,0,0,-0.0215,-0.0215,0,-0.0131,-0.013,-0.0129,-0.0089,-0.0089,-0.0089,-0.0089,0.0039,0.0042,0.0046,0,0,0,0,0,0,0,0,0,0,0,0,0,-0.0251,-0.0251,-0.0216,-0.0215,-0.0213,-0.0131,-0.013,-0.0128,-0.0089,-0.0089,-0.0089,-0.0089,0.0038,0.0042,0.0046,0,0,0,0,0,0,0,0,0,0,0,0,0,-0.0208,-0.0251,-0.0216,-0.0184,-0.018,-0.0131,-0.013,-0.0128,-0.0089,-0.0089,-0.0089,-0.0089,0.0036,0.0041,0.0047,0.0082,0,0,0.0063,0.0065,0,0,0,0,0,0,0,0,-0.021,-0.0207,-0.019,-0.0186,-0.0182,-0.0121,-0.0095,-0.0056,-0.0089,-0.0123,-0.0089,-0.0089,-0.0011,-0.0002,0.0015,0.0088,0.0093,0.0063,0.0066,0.0069,0.007,0,0,0,0,0,0,0,-0.0214,-0.0209,-0.0181,-0.0189,-0.0184,-0.0143,-0.0137,-0.0087,-0.0066,-0.012,-0.0117,-0.0108,-0.0008,0.0009,0.0018,0.0095,0.0063,0.0068,0.0071,0.0073,0.0192,0.0192,0,0,0,0,0,0,-0.023,-0.0213,-0.0184,-0.0179,-0.0197,-0.0142,-0.0136,-0.014,-0.0067,-0.0057,-0.0108,-0.0107,0.0001,0.0012,0.0023,0.0056,0.0069,0.0073,0.0076,0.0192,0.0192,0.0192,0,0,0,0,0,0,-0.0231,-0.0229,-0.0188,-0.0193,-0.0185,-0.0142,-0.0146,-0.0138,-0.0126,-0.0059,-0.0048,-0.0105,0.0001,0.0015,0.0063,0.0062,0.0076,0.0081,0.0192,0.0192,0.0192,0.0132,0,0,0,0,0,0,-0.0233,-0.023,-0.0239,-0.0195,-0.0186,-0.0171,-0.0146,-0.0137,-0.012,-0.0118,-0.0052,-0.004,0.0002,0.0055,0.0069,0.007,0.0085,0.0192,0.0192,0.0192,0.0134,0.013,0.0126,0,0,0,0,0,-0.0234,-0.0248,-0.0241,-0.0237,-0.02,-0.0172,-0.0164,-0.0132,-0.0121,-0.0121,-0.0072,-0.0043,0.0064,0.006,0.0075,0.0078,0.0192,0.0192,0.0192,0.0135,0.0131,0.0127,0,0,0,0,0,0,-0.0268,-0.0244,-0.0235,-0.0241,-0.0215,-0.0166,-0.0161,-0.0138,-0.01,-0.0099,-0.0035,-0.002,0.0018,0.0058,0.0051,0.0111,0.013,0.0134,0.0082,0.0078,0.0075,0.0045,0.0089,0,0,0,0,0,-0.0281,-0.0287,-0.0253,-0.0258,-0.0249,-0.0207,-0.0192,-0.0173,-0.0132,-0.0116,-0.0066,-0.0014,0.0033,0.0061,0.0105,0.0146,0.0173,0.0156,0.0152,0.0148,0.0134,0.02,0.0201,0.0192,0.0192,0.0192,0,0,-0.0293,-0.0282,-0.0284,-0.0266,-0.0243,-0.0237,-0.0199,-0.0186,-0.0177,-0.0106,-0.0077,-0.0026,0.0039,0.0078,0.0099,0.0112,0.0158,0.0148,0.0145,0.0133,0.02,0.0201,0.0202,0.0192,0.0192,0.0192,0,0,-0.0321,-0.0315,-0.0328,-0.0317,-0.0295,-0.0264,-0.0265,-0.0222,-0.0201,-0.0162,-0.0113,-0.006,0.001,0.006,0.0094,0.01,0.0133,0.0106,0.0071,0.0135,0.0136,0.0138,0.0141,0.0143,0.0109,0.0109,0.0109,0,-0.034,-0.0354,-0.0325,-0.0339,-0.0334,-0.0283,-0.0294,-0.0262,-0.0207,-0.0186,-0.0165,-0.0049,0.0004,0.0064,0.0057,0.0092,0.0108,0.0083,0.013,0.0132,0.0135,0.0138,0.0141,0.0106,0.0107,0.0107,0.0107,0,-0.038,-0.0391,-0.0399,-0.04,-0.0387,-0.039,-0.0348,-0.0324,-0.0285,-0.0246,-0.0183,-0.0098,-0.003,-0.0004,0.0026,0.0069,0.0064,0.0113,0.0138,0.0132,0.0135,0.014,0.0102,0.0103,0.0104,0.0105,0,0,-0.0423,-0.0428,-0.0431,-0.0442,-0.0425,-0.0416,-0.04,-0.0363,-0.0345,-0.0277,-0.0241,-0.0154,-0.0107,-0.0067,-0.0007,0.0045,0.0068,0.007,0.0074,0.0063,0.0156,0.0174,0.018,0.0124,0.0126,0.0127,0.0139,0,-0.0464,-0.0506,-0.0489,-0.0512,-0.0528,-0.0484,-0.0473,-0.0435,-0.0377,-0.0328,-0.0233,-0.0175,-0.0129,-0.0093,-0.0036,0.0048,0.0081,0.0056,0.017,0.0172,0.0184,0.0188,0.0187,0.0201,0.0144,0.0144,0.0145,0,-0.0511,-0.0532,-0.0574,-0.0574,-0.0576,-0.0577,-0.0543,-0.0522,-0.0444,-0.04,-0.0321,-0.0248,-0.0166,-0.0117,0.001,-0.0013,0.0048,0.0113,0.0117,0.0159,0.0201,0.0206,0.0212,0.0153,0.0152,0.0152,0.0151,0,-0.0562,-0.0583,-0.0619,-0.0627,-0.0622,-0.0623,-0.0604,-0.0548,-0.0523,-0.0438,-0.0401,-0.0296,-0.0228,-0.0127,-0.0003,0.0,0.0131,0.0169,0.0235,0.0235,0.0269,0.0271,0.0249,0.0249,0.0249,0.0249,0.0249,0,-0.0616,-0.0639,-0.0647,-0.0673,-0.0699,-0.0676,-0.0673,-0.0637,-0.0578,-0.0543,-0.0441,-0.0379,-0.0224,-0.0123,-0.0026,0.011,0.0119,0.0216,0.0252,0.0244,0.0244,0.0241,0.024,0.0249,0.0249,0.0249,0.0249,0,-0.066,-0.0674,-0.0711,-0.0725,-0.0729,-0.0745,-0.0722,-0.0709,-0.0651,-0.0596,-0.0572,-0.0442,-0.0311,-0.0169,-0.0001,0.0089,0.0217,0.0261,0.0207,0.0237,0.0269,0.0264,0.0324,0.0325,0.0326,0.0327,0.0327,0,-0.0681,-0.0715,-0.0754,-0.0777,-0.0783,-0.0795,-0.08,-0.0755,-0.0729,-0.0623,-0.0598,-0.0468,-0.0355,-0.0123,0.005,0.0212,0.023,0.0304,0.0333,0.0254,0.0282,0.0277,0.0271,0.0332,0.0333,0.0333,0.0334,0,-0.0717,-0.0739,-0.0772,-0.0826,-0.0848,-0.0861,-0.0855,-0.0846,-0.0776,-0.0721,-0.0622,-0.0527,-0.0302,-0.0098,0.0112,0.0213,0.028,0.0319,0.0285,0.0319,0.0266,0.0292,0.0286,0.0338,0.0338,0.0337,0.0337,0.0337,-0.0731,-0.0767,-0.0816,-0.0863,-0.0894,-0.091,-0.0908,-0.0881,-0.0841,-0.0729,-0.0642,-0.0469,-0.0281,0.0037,0.0185,0.0323,0.0319,0.0378,0.0375,0.0372,0.0376,0.0329,0.041,0.041,0.041,0.041,0.041,0,-0.0736,-0.0788,-0.0841,-0.0897,-0.0934,-0.094,-0.0932,-0.0907,-0.0854,-0.0729,-0.0613,-0.0374,-0.0134,0.0053,0.0279,0.0408,0.0398,0.0431,0.0404,0.04,0.0396,0.04,0.044,0.0441,0.0441,0.0441,0,0,-0.0739,-0.0798,-0.0838,-0.0914,-0.095,-0.0969,-0.096,-0.0915,-0.0826,-0.0695,-0.055,-0.0354,-0.012,0.0053,0.0216,0.0335,0.0327,0.0342,0.0306,0.0251,0.0245,0.0358,0.036,0,0,0,0,0]}],[{"header":{"parameterUnit":"m.s-1","parameterCategory":2,"la1":30.2991,"la2":30.254,"lo1":-89.0895,"lo2":-89.0444,"dy":0.0017,"dx":0.0017,"nx":28,"ny":28,"refTime":"2023-09-17T21:00:00:Z","depth":"4","parameterNumber":2,"parameterNumberName":"U-component_of_CURRENTS"},"data":[0,0,0,0,0,0,0,0,0,0,0,0,0,0,0,0,0,0,0,0,0,0,0,0,0,0,0,0,0,0,0,0,0,0,0,0,0,0,0,0,0,0,0,0,0,0,0,0,0,0,0,0,0,0,0,0,0,0,-0.1037,-0.1037,0,-0.0926,-0.0924,-0.0922,-0.0933,-0.0936,-0.0939,-0.0941,-0.0946,-0.0943,-0.0941,0,0,0,0,0,0,0,0,0,0,0,0,0,-0.1148,-0.1146,-0.1037,-0.1037,-0.1037,-0.0927,-0.0924,-0.0921,-0.0932,-0.0936,-0.0939,-0.0943,-0.0946,-0.0943,-0.094,0,0,0,0,0,0,0,0,0,0,0,0,0,-0.1064,-0.1145,-0.1037,-0.1038,-0.1037,-0.0927,-0.0924,-0.0921,-0.0932,-0.0936,-0.094,-0.0944,-0.0947,-0.0944,-0.094,-0.0833,0,0,-0.0929,-0.0927,0,0,0,0,0,0,0,0,-0.1069,-0.1058,-0.1038,-0.1038,-0.1037,-0.0958,-0.0965,-0.0901,-0.0931,-0.0959,-0.0941,-0.0946,-0.0965,-0.096,-0.0911,-0.0833,-0.0833,-0.0928,-0.0926,-0.0924,-0.0923,0,0,0,0,0,0,0,-0.1075,-0.1063,-0.0982,-0.1038,-0.1037,-0.1006,-0.0998,-0.0951,-0.0933,-0.0957,-0.0961,-0.0965,-0.0965,-0.0915,-0.0912,-0.0833,-0.0928,-0.0925,-0.0923,-0.0921,-0.0936,-0.0939,0,0,0,0,0,0,-0.1112,-0.1068,-0.0985,-0.0979,-0.1077,-0.1002,-0.0993,-0.097,-0.0931,-0.0932,-0.0962,-0.0967,-0.0919,-0.0916,-0.0913,-0.1034,-0.0924,-0.0921,-0.0919,-0.0934,-0.0937,-0.094,0,0,0,0,0,0,-0.1114,-0.1104,-0.099,-0.1033,-0.1018,-0.0998,-0.097,-0.0966,-0.0961,-0.0936,-0.0937,-0.0971,-0.0922,-0.0918,-0.089,-0.1026,-0.0919,-0.0916,-0.0931,-0.0935,-0.0938,-0.1118,0,0,0,0,0,0,-0.1117,-0.1105,-0.1104,-0.1034,-0.1017,-0.0988,-0.0967,-0.0961,-0.0961,-0.0966,-0.0942,-0.0944,-0.0925,-0.0896,-0.0887,-0.1019,-0.0913,-0.0927,-0.0933,-0.0937,-0.1108,-0.1127,-0.1143,0,0,0,0,0,-0.1121,-0.1103,-0.1104,-0.1096,-0.1015,-0.0991,-0.0979,-0.097,-0.0958,-0.0975,-0.0927,-0.0947,-0.0926,-0.089,-0.088,-0.1016,-0.0925,-0.0931,-0.0937,-0.1101,-0.1124,-0.1143,0,0,0,0,0,0,-0.1156,-0.1101,-0.1101,-0.107,-0.1068,-0.1,-0.0996,-0.0981,-0.0944,-0.0954,-0.0913,-0.091,-0.096,-0.0928,-0.0891,-0.1036,-0.0956,-0.096,-0.1085,-0.1106,-0.1123,-0.1082,-0.091,0,0,0,0,0,-0.1162,-0.1137,-0.1103,-0.1091,-0.1082,-0.1038,-0.1025,-0.1032,-0.099,-0.0979,-0.0962,-0.0954,-0.0962,-0.0982,-0.097,-0.0997,-0.0939,-0.1098,-0.1115,-0.1131,-0.1091,-0.102,-0.1026,-0.096,-0.0959,-0.0959,0,0,-0.1184,-0.1144,-0.114,-0.1099,-0.1074,-0.1069,-0.1039,-0.1044,-0.1066,-0.0982,-0.0996,-0.0994,-0.0972,-0.1032,-0.106,-0.1034,-0.1151,-0.1138,-0.1152,-0.1101,-0.1026,-0.1032,-0.1037,-0.0964,-0.0963,-0.0962,0,0,-0.1205,-0.1168,-0.1159,-0.1142,-0.1134,-0.1114,-0.113,-0.1098,-0.1117,-0.1106,-0.1093,-0.1127,-0.1116,-0.115,-0.1157,-0.1243,-0.1228,-0.1312,-0.1386,-0.1322,-0.1325,-0.1327,-0.1393,-0.1399,-0.1342,-0.1343,-0.1343,0,-0.1236,-0.1204,-0.1165,-0.1145,-0.1138,-0.1141,-0.1147,-0.1153,-0.1134,-0.1145,-0.115,-0.1149,-0.1166,-0.1226,-0.13,-0.1289,-0.1272,-0.1317,-0.1342,-0.1341,-0.134,-0.1405,-0.1409,-0.1352,-0.1351,-0.135,-0.1349,0,-0.1243,-0.1226,-0.1215,-0.119,-0.1186,-0.1195,-0.1204,-0.1234,-0.1251,-0.1256,-0.1314,-0.1304,-0.1309,-0.1389,-0.137,-0.1436,-0.1444,-0.1357,-0.1284,-0.1357,-0.1424,-0.1425,-0.1366,-0.1362,-0.1359,-0.1357,0,0,-0.1256,-0.1232,-0.1225,-0.1228,-0.1209,-0.1209,-0.1251,-0.1283,-0.1305,-0.1351,-0.1375,-0.1451,-0.1459,-0.1463,-0.15,-0.1486,-0.1551,-0.1446,-0.1438,-0.1507,-0.1501,-0.1381,-0.1371,-0.1457,-0.1455,-0.1453,-0.1599,0,-0.1275,-0.1269,-0.1245,-0.1261,-0.1254,-0.1257,-0.1285,-0.1324,-0.1353,-0.1387,-0.1438,-0.1471,-0.1493,-0.153,-0.1524,-0.1518,-0.1538,-0.1524,-0.1419,-0.1418,-0.1294,-0.1359,-0.1447,-0.1599,-0.1599,-0.1599,-0.1599,0,-0.1255,-0.1259,-0.1279,-0.1283,-0.128,-0.1302,-0.1329,-0.1362,-0.1412,-0.1433,-0.1474,-0.1491,-0.1568,-0.1523,-0.1546,-0.1536,-0.153,-0.1516,-0.1518,-0.1311,-0.1292,-0.1476,-0.1599,-0.1599,-0.1599,-0.1599,-0.1599,0,-0.1247,-0.126,-0.129,-0.1284,-0.1303,-0.1328,-0.1355,-0.1384,-0.1411,-0.147,-0.1486,-0.1534,-0.1573,-0.1537,-0.1557,-0.1547,-0.153,-0.1503,-0.1405,-0.1404,-0.139,-0.1384,-0.1452,-0.1452,-0.1451,-0.1451,-0.145,0,-0.1214,-0.123,-0.1301,-0.13,-0.1333,-0.1349,-0.1382,-0.1403,-0.145,-0.1464,-0.1523,-0.1532,-0.1551,-0.1558,-0.1559,-0.1499,-0.1534,-0.1411,-0.1392,-0.1487,-0.1489,-0.1399,-0.1391,-0.1456,-0.1455,-0.1454,-0.1453,0,-0.1152,-0.1206,-0.1229,-0.1294,-0.1316,-0.1336,-0.1385,-0.14,-0.1459,-0.1477,-0.1502,-0.1553,-0.155,-0.1573,-0.1541,-0.1494,-0.1448,-0.1407,-0.1606,-0.1598,-0.1401,-0.1401,-0.1347,-0.1343,-0.134,-0.1337,-0.1335,0,-0.1116,-0.113,-0.1208,-0.1226,-0.1254,-0.1303,-0.1316,-0.1386,-0.1394,-0.1462,-0.1459,-0.1499,-0.1511,-0.1436,-0.1439,-0.1438,-0.1384,-0.1406,-0.1315,-0.1383,-0.1372,-0.1377,-0.1382,-0.1329,-0.1329,-0.1328,-0.1327,0,-0.1038,-0.108,-0.1104,-0.1146,-0.1179,-0.1203,-0.1243,-0.1254,-0.1318,-0.1391,-0.1373,-0.137,-0.1362,-0.1353,-0.1344,-0.1326,-0.1412,-0.1371,-0.1377,-0.1292,-0.1361,-0.1354,-0.1363,-0.1315,-0.1317,-0.1318,-0.1319,0,-0.0979,-0.0975,-0.1021,-0.104,-0.1083,-0.1089,-0.1127,-0.1144,-0.1174,-0.1261,-0.1247,-0.1287,-0.134,-0.1294,-0.1284,-0.1255,-0.1231,-0.1193,-0.1209,-0.1222,-0.1095,-0.1159,-0.1025,0,0,0,0,0,-0.0913,-0.09,-0.0912,-0.0931,-0.0971,-0.0993,-0.1059,-0.1107,-0.1187,-0.1137,-0.1193,-0.1175,-0.1153,-0.1183,-0.1123,-0.1218,-0.1236,-0.1143,-0.1201,-0.1251,-0.1264,-0.1117,0,0,0,0,0,0,-0.0871,-0.0878,-0.0874,-0.0838,-0.0834,-0.0861,-0.0904,-0.0963,-0.0949,-0.1038,-0.1035,-0.1092,-0.1093,-0.1161,-0.1093,-0.1099,-0.1109,-0.1174,-0.117,-0.1243,-0.1256,-0.1266,-0.1119,0,0,0,0,0]},{"header":{"parameterUnit":"m.s-1","parameterCategory":2,"la1":30.2991,"la2":30.254,"lo1":-89.0895,"lo2":-89.0444,"dy":0.0017,"dx":0.0017,"nx":28,"ny":28,"refTime":"2023-09-17T21:00:00:Z","depth":"4","parameterNumber":3,"parameterNumberName":"V-component_of_CURRENTS"},"data":[0,0,0,0,0,0,0,0,0,0,0,0,0,0,0,0,0,0,0,0,0,0,0,0,0,0,0,0,0,0,0,0,0,0,0,0,0,0,0,0,0,0,0,0,0,0,0,0,0,0,0,0,0,0,0,0,0,0,-0.0182,-0.0182,0,-0.021,-0.0211,-0.0212,-0.0205,-0.0204,-0.0203,-0.0202,-0.0215,-0.0216,-0.0217,0,0,0,0,0,0,0,0,0,0,0,0,0,-0.0178,-0.0179,-0.0182,-0.0182,-0.0182,-0.021,-0.0211,-0.0212,-0.0205,-0.0204,-0.0203,-0.0202,-0.0215,-0.0216,-0.0218,0,0,0,0,0,0,0,0,0,0,0,0,0,-0.0195,-0.0179,-0.0182,-0.0178,-0.0178,-0.021,-0.0211,-0.0212,-0.0205,-0.0204,-0.0202,-0.0201,-0.0214,-0.0216,-0.0218,-0.0259,0,0,-0.0224,-0.0224,0,0,0,0,0,0,0,0,-0.0194,-0.0196,-0.0179,-0.0178,-0.0178,-0.0198,-0.0214,-0.0225,-0.0206,-0.02,-0.0202,-0.02,-0.0206,-0.0208,-0.0224,-0.026,-0.0261,-0.0224,-0.0225,-0.0226,-0.0226,0,0,0,0,0,0,0,-0.0193,-0.0195,-0.0198,-0.0179,-0.0178,-0.0194,-0.0195,-0.0217,-0.0215,-0.0201,-0.0199,-0.0195,-0.0206,-0.0222,-0.0224,-0.0261,-0.0224,-0.0225,-0.0227,-0.0227,-0.0294,-0.0295,0,0,0,0,0,0,-0.0178,-0.0194,-0.0197,-0.0198,-0.0177,-0.0195,-0.0196,-0.0197,-0.0215,-0.0214,-0.0196,-0.0194,-0.022,-0.0222,-0.0225,-0.0229,-0.0226,-0.0228,-0.0229,-0.0293,-0.0294,-0.0295,0,0,0,0,0,0,-0.0178,-0.0179,-0.0196,-0.0192,-0.0195,-0.0195,-0.0198,-0.0199,-0.0213,-0.021,-0.0211,-0.0209,-0.0219,-0.0222,-0.0255,-0.0231,-0.0228,-0.023,-0.0293,-0.0294,-0.0294,-0.0267,0,0,0,0,0,0,-0.0178,-0.0179,-0.0185,-0.0192,-0.0194,-0.0205,-0.0199,-0.02,-0.0211,-0.0209,-0.0222,-0.0221,-0.0218,-0.0253,-0.0257,-0.0233,-0.0232,-0.0292,-0.0293,-0.0294,-0.0267,-0.0267,-0.0267,0,0,0,0,0,-0.0178,-0.0187,-0.0185,-0.0186,-0.02,-0.0204,-0.0208,-0.0207,-0.0213,-0.0217,-0.024,-0.0221,-0.0262,-0.0256,-0.0261,-0.0237,-0.0291,-0.0293,-0.0294,-0.0267,-0.0267,-0.0267,0,0,0,0,0,0,-0.0194,-0.0187,-0.0185,-0.0193,-0.0193,-0.0201,-0.021,-0.0215,-0.0241,-0.0245,-0.0248,-0.025,-0.0264,-0.0271,-0.0264,-0.0262,-0.0266,-0.0268,-0.0244,-0.0244,-0.0243,-0.0245,-0.0233,0,0,0,0,0,-0.0199,-0.0203,-0.0196,-0.0205,-0.0204,-0.0213,-0.022,-0.0219,-0.0236,-0.0245,-0.0251,-0.0265,-0.0277,-0.0277,-0.0293,-0.0306,-0.0281,-0.029,-0.0289,-0.0289,-0.0296,-0.0261,-0.0257,-0.0299,-0.0299,-0.0299,0,0,-0.0208,-0.0205,-0.0208,-0.0209,-0.0213,-0.0223,-0.0214,-0.0224,-0.0236,-0.0245,-0.0269,-0.0273,-0.0286,-0.0292,-0.0296,-0.029,-0.0257,-0.0291,-0.029,-0.0297,-0.0262,-0.0257,-0.0253,-0.03,-0.03,-0.03,0,0,-0.0228,-0.0225,-0.0234,-0.0237,-0.0237,-0.0237,-0.024,-0.0246,-0.0248,-0.0275,-0.0278,-0.0274,-0.0301,-0.0289,-0.0292,-0.0307,-0.0265,-0.0304,-0.0292,-0.0258,-0.0254,-0.0249,-0.0174,-0.0163,-0.0293,-0.0293,-0.0293,0,-0.0243,-0.0253,-0.0239,-0.0251,-0.0259,-0.0244,-0.0263,-0.0266,-0.0283,-0.0288,-0.0276,-0.0294,-0.0294,-0.0293,-0.0291,-0.03,-0.0269,-0.0286,-0.0254,-0.025,-0.0246,-0.017,-0.0159,-0.0292,-0.0292,-0.0292,-0.0292,0,-0.0273,-0.0281,-0.0287,-0.0295,-0.0301,-0.0313,-0.0306,-0.0308,-0.0305,-0.0305,-0.03,-0.0291,-0.0294,-0.0279,-0.0293,-0.0264,-0.0244,-0.0262,-0.0247,-0.024,-0.0161,-0.0149,-0.029,-0.0291,-0.0291,-0.0291,0,0,-0.0304,-0.0309,-0.0312,-0.0323,-0.0328,-0.0335,-0.0344,-0.0346,-0.0348,-0.0331,-0.0322,-0.0317,-0.0294,-0.0297,-0.0282,-0.0243,-0.017,-0.0242,-0.0241,-0.0152,-0.0062,-0.0081,-0.007,-0.0183,-0.0182,-0.0181,-0.0001,0,-0.0334,-0.0369,-0.0359,-0.0388,-0.0405,-0.039,-0.0399,-0.0399,-0.0381,-0.0362,-0.0322,-0.0314,-0.0305,-0.0288,-0.025,-0.0201,-0.0147,-0.0215,-0.0097,-0.0092,-0.0099,-0.0061,-0.0178,0.0007,0.001,0.0012,0.0013,0,-0.0368,-0.0387,-0.0429,-0.0435,-0.044,-0.0454,-0.0455,-0.0457,-0.0425,-0.0406,-0.0368,-0.0339,-0.0275,-0.0269,-0.015,-0.0196,-0.0135,-0.0083,-0.0075,-0.0102,-0.0093,-0.0014,0.0034,0.0032,0.0031,0.0029,0.0028,0,-0.0408,-0.0429,-0.0466,-0.0476,-0.0486,-0.0496,-0.0496,-0.0481,-0.0477,-0.0426,-0.04,-0.0331,-0.028,-0.0199,-0.0106,-0.0122,0.0033,0.0029,0.0082,0.0085,0.0038,0.0031,0.011,0.0109,0.0109,0.0109,0.0108,0,-0.0443,-0.0466,-0.049,-0.0513,-0.0547,-0.0539,-0.0554,-0.0537,-0.0504,-0.0488,-0.0425,-0.0376,-0.0268,-0.0174,-0.0088,0.0037,0.0053,0.0096,0.0122,0.005,0.0042,0.005,0.004,0.0115,0.0114,0.0113,0.0111,0,-0.0468,-0.0489,-0.0529,-0.0557,-0.057,-0.0594,-0.0596,-0.0594,-0.0557,-0.0519,-0.0501,-0.0397,-0.0266,-0.0151,0.0002,0.006,0.0179,0.021,0.0158,0.0176,0.0219,0.0209,0.0327,0.0327,0.0328,0.0328,0.0329,0,-0.0476,-0.0509,-0.0569,-0.0598,-0.0611,-0.064,-0.0655,-0.0632,-0.0617,-0.0528,-0.0503,-0.0378,-0.03,-0.0063,0.0034,0.0222,0.0217,0.0296,0.0229,0.0225,0.0239,0.0227,0.0217,0.0329,0.033,0.033,0.033,0,-0.0491,-0.0525,-0.056,-0.0629,-0.0663,-0.0688,-0.0698,-0.0686,-0.0636,-0.0607,-0.0478,-0.0355,-0.0208,-0.005,0.0077,0.0199,0.0258,0.0303,0.0302,0.024,0.023,0.024,0.0229,0.0332,0.0331,0.0331,0.0331,0,-0.0494,-0.0528,-0.0587,-0.064,-0.0691,-0.071,-0.0713,-0.067,-0.0645,-0.0539,-0.0498,-0.0332,-0.0241,-0.0061,0.006,0.0173,0.02,0.0232,0.0235,0.0235,0.0123,0.0091,0.0185,0,0,0,0,0,-0.0487,-0.053,-0.0587,-0.0646,-0.0696,-0.0722,-0.0727,-0.0715,-0.0667,-0.0576,-0.0531,-0.0389,-0.018,-0.0088,0.0026,0.005,0.0198,0.0185,0.023,0.0342,0.034,0.0218,0,0,0,0,0,0,-0.0483,-0.0542,-0.0582,-0.0639,-0.0676,-0.0719,-0.0721,-0.069,-0.0628,-0.0564,-0.0451,-0.0376,-0.018,-0.0249,0.0023,0.0057,0.01,0.0282,0.0285,0.0343,0.0341,0.034,0.0213,0,0,0,0,0]}]]